�������l�o���
Date,Time,MP-1(��Sv/h),MP-2(��Sv/h),MP-3(��Sv/h),MP-4(��Sv/h),MP-5(��Sv/h),MP-6(��Sv/h),MP-7(��Sv/h),MP-8(��Sv/h),����,����(m/s),���J
2020/05/22,00:00,0.671,0.960,0.631,1.169,0.817,0.388,0.675,0.640,�k��,4.3,�L
2020/05/22,00:10,0.671,0.958,0.630,1.166,0.818,0.387,0.675,0.641,�k��,4.6,�L
2020/05/22,00:20,0.670,0.956,0.632,1.170,0.820,0.389,0.674,0.641,�k��,4.7,�L
2020/05/22,00:30,0.673,0.960,0.632,1.168,0.818,0.390,0.674,0.641,�k��,3.7,�L
2020/05/22,00:40,0.671,0.958,0.631,1.168,0.819,0.388,0.674,0.640,�k��,3.7,�L
2020/05/22,00:50,0.674,0.959,0.631,1.168,0.819,0.388,0.675,0.642,�k��,3.8,�L
2020/05/22,01:00,0.673,0.960,0.630,1.169,0.819,0.388,0.674,0.641,�k��,3.8,�L
2020/05/22,01:10,0.674,0.960,0.631,1.171,0.817,0.388,0.677,0.642,�k��,4.1,�L
2020/05/22,01:20,0.672,0.960,0.632,1.169,0.818,0.390,0.675,0.642,�k��,4.4,�L
2020/05/22,01:30,0.671,0.958,0.632,1.172,0.819,0.389,0.675,0.641,�k��,5.3,�L
2020/05/22,01:40,0.672,0.958,0.633,1.169,0.820,0.389,0.674,0.641,�k��,4.1,�L
2020/05/22,01:50,0.673,0.957,0.631,1.170,0.818,0.389,0.674,0.641,�k��,4.3,�L
2020/05/22,02:00,0.673,0.958,0.631,1.169,0.820,0.389,0.674,0.641,�k��,4.0,�L
2020/05/22,02:10,0.671,0.961,0.631,1.171,0.820,0.389,0.676,0.642,�k��,4.1,��
2020/05/22,02:20,0.671,0.958,0.630,1.168,0.819,0.387,0.674,0.642,�k��,3.7,��
2020/05/22,02:30,0.672,0.959,0.632,1.168,0.819,0.388,0.675,0.641,�k��,4.4,��
2020/05/22,02:40,0.673,0.957,0.631,1.171,0.816,0.388,0.675,0.644,�k��,4.3,��
2020/05/22,02:50,0.672,0.959,0.632,1.174,0.819,0.390,0.675,0.643,�k��,4.6,�L
2020/05/22,03:00,0.672,0.960,0.632,1.168,0.820,0.389,0.674,0.642,�k��,5.1,��
2020/05/22,03:10,0.672,0.959,0.631,1.170,0.816,0.389,0.675,0.642,�k��,4.8,�L
2020/05/22,03:20,0.672,0.959,0.632,1.168,0.820,0.389,0.676,0.643,�k��,5.0,�L
2020/05/22,03:30,0.672,0.959,0.632,1.171,0.819,0.389,0.677,0.642,�k��,5.2,�L
2020/05/22,03:40,0.670,0.958,0.633,1.169,0.820,0.386,0.674,0.643,�k��,4.6,�L
2020/05/22,03:50,0.671,0.958,0.630,1.170,0.822,0.389,0.676,0.641,�k��,5.2,�L
2020/05/22,04:00,0.672,0.958,0.630,1.172,0.817,0.389,0.676,0.642,�k��,5.0,�L
2020/05/22,04:10,0.670,0.957,0.630,1.170,0.819,0.391,0.675,0.642,�k��,4.4,�L
2020/05/22,04:20,0.672,0.959,0.632,1.170,0.820,0.388,0.675,0.641,�k��,4.2,�L
2020/05/22,04:30,0.673,0.957,0.631,1.173,0.821,0.391,0.675,0.642,�k��,4.3,�L
2020/05/22,04:40,0.672,0.960,0.630,1.171,0.819,0.388,0.675,0.642,�k��,4.8,��
2020/05/22,04:50,0.672,0.957,0.629,1.171,0.821,0.390,0.676,0.639,�k��,5.5,��
2020/05/22,05:00,0.672,0.958,0.629,1.170,0.819,0.389,0.674,0.642,�k��,5.1,��
2020/05/22,05:10,0.672,0.957,0.629,1.169,0.821,0.388,0.677,0.642,�k��,5.5,�L
2020/05/22,05:20,0.673,0.959,0.632,1.169,0.820,0.390,0.676,0.640,�k��,5.2,�L
2020/05/22,05:30,0.670,0.959,0.630,1.170,0.820,0.391,0.676,0.642,�k��,5.2,�L
2020/05/22,05:40,0.671,0.958,0.632,1.172,0.821,0.389,0.677,0.642,�k��,4.6,�L
2020/05/22,05:50,0.671,0.958,0.629,1.169,0.818,0.388,0.674,0.643,�k��,4.7,�L
2020/05/22,06:00,0.668,0.957,0.629,1.169,0.819,0.389,0.674,0.641,�k��,4.6,�L
2020/05/22,06:10,0.672,0.960,0.631,1.168,0.820,0.388,0.675,0.641,�k��,5.0,�L
2020/05/22,06:20,0.671,0.957,0.631,1.169,0.822,0.389,0.675,0.642,�k��,5.2,�L
2020/05/22,06:30,0.670,0.957,0.630,1.170,0.820,0.388,0.675,0.641,�k��,5.2,�L
2020/05/22,06:40,0.669,0.956,0.630,1.168,0.818,0.389,0.674,0.642,�k�k��,5.3,�L
2020/05/22,06:50,0.670,0.955,0.629,1.169,0.817,0.388,0.674,0.641,�k�k��,5.1,�L
2020/05/22,07:00,0.670,0.957,0.627,1.171,0.820,0.389,0.674,0.641,�k�k��,4.8,�L
2020/05/22,07:10,0.670,0.954,0.629,1.170,0.818,0.389,0.674,0.641,�k�k��,4.7,��
2020/05/22,07:20,0.669,0.955,0.631,1.168,0.818,0.388,0.674,0.641,�k��,4.0,��
2020/05/22,07:30,0.671,0.956,0.629,1.169,0.821,0.389,0.675,0.642,�k��,3.9,��
2020/05/22,07:40,0.670,0.958,0.630,1.169,0.821,0.389,0.675,0.641,�k�k��,4.3,��
2020/05/22,07:50,0.671,0.955,0.630,1.172,0.820,0.388,0.675,0.641,�k�k��,4.0,��
2020/05/22,08:00,0.670,0.956,0.630,1.171,0.821,0.387,0.674,0.643,�k��,3.7,��
2020/05/22,08:10,0.672,0.956,0.630,1.172,0.820,0.389,0.675,0.642,�k��,3.3,��
2020/05/22,08:20,0.672,0.956,0.631,1.171,0.820,0.388,0.676,0.642,�k�k��,3.6,��
2020/05/22,08:30,0.673,0.956,0.629,1.171,0.821,0.388,0.676,0.641,�k��,3.5,��
2020/05/22,08:40,0.673,0.951,0.631,1.169,0.819,0.388,0.674,0.643,�k�k��,3.5,��
2020/05/22,08:50,0.673,0.953,0.630,1.169,0.822,0.388,0.674,0.643,�k�k��,3.3,��
2020/05/22,09:00,0.673,0.953,0.631,1.169,0.821,0.389,0.674,0.641,�k��,2.8,��
2020/05/22,09:10,0.674,0.952,0.632,1.171,0.819,0.387,0.674,0.642,�k��,3.4,��
2020/05/22,09:20,0.672,0.951,0.631,1.173,0.818,0.389,0.675,0.641,�k�k��,3.0,��
2020/05/22,09:30,0.670,0.949,0.632,1.173,0.818,0.390,0.675,0.642,�k�k��,2.7,��
2020/05/22,09:40,0.671,0.951,0.633,1.169,0.820,0.388,0.674,0.641,�k�k��,2.3,�L
2020/05/22,09:50,0.670,0.951,0.634,1.170,0.820,0.390,0.675,0.641,�k�k��,2.6,�L
2020/05/22,10:00,0.672,0.953,0.636,1.169,0.820,0.389,0.674,0.639,�k�k��,3.2,�L
2020/05/22,10:10,0.670,0.949,0.634,1.175,0.821,0.389,0.674,0.641,�k�k��,3.3,�L
2020/05/22,10:20,0.671,0.951,0.635,1.170,0.820,0.388,0.675,0.639,�k�k��,4.2,�L
2020/05/22,10:30,0.672,0.954,0.635,1.171,0.820,0.389,0.675,0.642,�k,3.1,��
2020/05/22,10:40,0.672,0.952,0.634,1.172,0.821,0.389,0.675,0.640,�k,3.2,��
2020/05/22,10:50,0.671,0.954,0.636,1.171,0.823,0.389,0.676,0.640,�k�k��,3.9,��
2020/05/22,11:00,0.672,0.950,0.635,1.171,0.821,0.390,0.676,0.641,�k�k��,3.7,�L
2020/05/22,11:10,0.672,0.954,0.636,1.172,0.822,0.388,0.675,0.640,�k�k��,3.6,��
2020/05/22,11:20,0.672,0.951,0.637,1.174,0.820,0.389,0.676,0.639,�k��,3.6,��
2020/05/22,11:30,0.673,0.953,0.636,1.173,0.821,0.388,0.677,0.640,�k��,3.5,�L
2020/05/22,11:40,0.672,0.955,0.635,1.174,0.821,0.388,0.676,0.638,�k,3.3,��
2020/05/22,11:50,0.672,0.956,0.635,1.174,0.820,0.388,0.674,0.640,�k�k��,3.3,��
2020/05/22,12:00,0.674,0.957,0.635,1.173,0.821,0.389,0.676,0.640,�k�k��,3.6,��
2020/05/22,12:10,0.673,0.954,0.633,1.175,0.822,0.386,0.676,0.639,�k�k��,3.3,��
2020/05/22,12:20,0.672,0.959,0.635,1.172,0.820,0.387,0.677,0.638,�k,2.8,��
2020/05/22,12:30,0.674,0.960,0.635,1.175,0.823,0.388,0.675,0.640,�k�k��,3.8,��
2020/05/22,12:40,0.673,0.957,0.634,1.175,0.824,0.388,0.676,0.640,�k,3.3,��
2020/05/22,12:50,0.674,0.959,0.635,1.173,0.823,0.388,0.676,0.641,�k�k��,2.9,��
2020/05/22,13:00,0.674,0.956,0.637,1.176,0.823,0.389,0.676,0.639,�k,3.7,��
2020/05/22,13:10,0.672,0.959,0.636,1.175,0.823,0.389,0.676,0.641,�k,2.6,��
2020/05/22,13:20,0.672,0.957,0.635,1.177,0.823,0.388,0.675,0.641,�k�k��,3.1,��
2020/05/22,13:30,0.675,0.956,0.635,1.176,0.823,0.388,0.677,0.640,�k,2.6,��
2020/05/22,13:40,0.675,0.957,0.636,1.176,0.824,0.388,0.677,0.640,�k,3.4,��
2020/05/22,13:50,0.672,0.955,0.635,1.175,0.823,0.388,0.677,0.639,�k�k��,4.0,��
2020/05/22,14:00,0.673,0.954,0.637,1.174,0.822,0.388,0.676,0.639,�k�k��,4.9,��
2020/05/22,14:10,0.672,0.956,0.636,1.175,0.825,0.387,0.677,0.641,�k,4.4,�L
2020/05/22,14:20,0.672,0.957,0.635,1.176,0.822,0.388,0.677,0.638,�k,4.4,�L
2020/05/22,14:30,0.672,0.957,0.635,1.175,0.821,0.389,0.676,0.639,�k,4.4,�L
2020/05/22,14:40,0.673,0.958,0.634,1.174,0.823,0.387,0.675,0.639,�k,4.3,�L
2020/05/22,14:50,0.675,0.958,0.633,1.177,0.825,0.387,0.675,0.640,�k,4.6,�L
2020/05/22,15:00,0.674,0.959,0.635,1.174,0.825,0.388,0.676,0.638,�k,4.6,�L
2020/05/22,15:10,0.676,0.957,0.635,1.174,0.825,0.389,0.675,0.639,�k,4.2,�L
2020/05/22,15:20,0.675,0.960,0.636,1.174,0.824,0.390,0.675,0.640,�k,4.2,�L
2020/05/22,15:30,0.675,0.958,0.636,1.173,0.823,0.389,0.674,0.639,�k,4.4,�L
2020/05/22,15:40,0.673,0.958,0.635,1.172,0.822,0.390,0.676,0.640,�k,3.8,�L
2020/05/22,15:50,0.676,0.959,0.634,1.174,0.825,0.391,0.674,0.641,�k�k��,5.0,�L
2020/05/22,16:00,0.676,0.957,0.634,1.174,0.821,0.390,0.675,0.640,�k�k��,4.7,�L
2020/05/22,16:10,0.671,0.958,0.634,1.171,0.822,0.389,0.674,0.640,�k�k��,4.6,�L
2020/05/22,16:20,0.674,0.960,0.635,1.175,0.823,0.388,0.674,0.641,�k�k��,4.1,�L
2020/05/22,16:30,0.675,0.959,0.633,1.173,0.822,0.391,0.675,0.642,�k�k��,4.3,�L
2020/05/22,16:40,0.673,0.958,0.633,1.172,0.824,0.389,0.674,0.642,�k�k��,3.8,�L
2020/05/22,16:50,0.676,0.958,0.633,1.173,0.823,0.388,0.674,0.642,�k�k��,4.1,�L
2020/05/22,17:00,0.674,0.959,0.633,1.175,0.825,0.390,0.675,0.641,�k�k��,4.4,��
2020/05/22,17:10,0.673,0.959,0.632,1.172,0.824,0.390,0.676,0.641,�k�k��,4.3,�L
2020/05/22,17:20,0.673,0.961,0.634,1.174,0.823,0.391,0.677,0.642,�k�k��,4.5,�L
2020/05/22,17:30,0.674,0.959,0.633,1.173,0.822,0.389,0.676,0.641,�k�k��,4.5,�L
2020/05/22,17:40,0.673,0.956,0.634,1.174,0.825,0.389,0.676,0.640,�k�k��,3.9,�L
2020/05/22,17:50,0.674,0.959,0.633,1.173,0.824,0.389,0.676,0.642,�k�k��,3.9,�L
2020/05/22,18:00,0.673,0.961,0.632,1.172,0.822,0.389,0.674,0.642,�k�k��,4.2,�L
2020/05/22,18:10,0.673,0.959,0.633,1.174,0.825,0.390,0.675,0.642,�k�k��,3.7,�L
2020/05/22,18:20,0.673,0.959,0.633,1.172,0.825,0.389,0.674,0.640,�k��,4.4,�L
2020/05/22,18:30,0.672,0.957,0.635,1.174,0.823,0.390,0.676,0.642,�k��,4.4,�L
2020/05/22,18:40,0.675,0.960,0.634,1.173,0.824,0.389,0.676,0.640,�k�k��,4.8,�L
2020/05/22,18:50,0.673,0.957,0.634,1.172,0.824,0.389,0.673,0.640,�k�k��,4.6,�L
2020/05/22,19:00,0.672,0.957,0.633,1.171,0.823,0.389,0.675,0.640,�k�k��,4.7,�L
2020/05/22,19:10,0.672,0.957,0.633,1.171,0.823,0.389,0.675,0.640,�k�k��,4.4,�L
2020/05/22,19:20,0.671,0.958,0.632,1.171,0.823,0.389,0.675,0.640,�k�k��,5.1,�L
2020/05/22,19:30,0.673,0.956,0.632,1.170,0.823,0.388,0.676,0.642,�k�k��,5.1,�L
2020/05/22,19:40,0.672,0.955,0.632,1.172,0.822,0.389,0.675,0.641,�k�k��,5.1,�L
2020/05/22,19:50,0.672,0.956,0.632,1.173,0.822,0.389,0.675,0.642,�k�k��,4.9,�L
2020/05/22,20:00,0.670,0.955,0.632,1.170,0.823,0.389,0.676,0.640,�k�k��,4.6,�L
2020/05/22,20:10,0.671,0.955,0.633,1.172,0.823,0.389,0.675,0.640,�k�k��,3.8,�L
2020/05/22,20:20,0.669,0.956,0.630,1.169,0.823,0.389,0.675,0.642,�k�k��,3.1,�L
2020/05/22,20:30,0.670,0.955,0.631,1.170,0.823,0.389,0.674,0.641,�k�k��,4.1,�L
2020/05/22,20:40,0.670,0.954,0.632,1.172,0.823,0.389,0.675,0.640,�k�k��,3.7,�L
2020/05/22,20:50,0.669,0.955,0.630,1.170,0.822,0.390,0.673,0.640,�k�k��,4.9,�L
2020/05/22,21:00,0.669,0.953,0.633,1.169,0.821,0.388,0.672,0.640,�k�k��,5.1,�L
2020/05/22,21:10,0.670,0.953,0.631,1.170,0.819,0.389,0.674,0.642,�k�k��,4.9,�L
2020/05/22,21:20,0.668,0.954,0.631,1.166,0.823,0.389,0.674,0.639,�k�k��,4.7,�L
2020/05/22,21:30,0.669,0.955,0.631,1.169,0.821,0.388,0.676,0.642,�k�k��,4.4,�L
2020/05/22,21:40,0.670,0.952,0.630,1.166,0.821,0.388,0.674,0.640,�k�k��,4.2,�L
2020/05/22,21:50,0.666,0.950,0.630,1.167,0.821,0.388,0.674,0.638,�k�k��,4.6,�L
2020/05/22,22:00,0.669,0.950,0.630,1.169,0.820,0.389,0.673,0.639,�k�k��,4.8,�L
2020/05/22,22:10,0.669,0.950,0.628,1.167,0.820,0.388,0.673,0.638,�k�k��,4.9,�L
2020/05/22,22:20,0.667,0.949,0.630,1.162,0.818,0.387,0.672,0.639,�k�k��,5.0,�L
2020/05/22,22:30,0.664,0.946,0.628,1.162,0.817,0.388,0.671,0.638,�k�k��,4.6,�L
2020/05/22,22:40,0.666,0.944,0.629,1.157,0.818,0.389,0.672,0.638,�k�k��,4.9,�L
2020/05/22,22:50,0.663,0.945,0.627,1.156,0.813,0.389,0.671,0.638,�k�k��,4.7,�L
2020/05/22,23:00,0.664,0.939,0.628,1.152,0.812,0.387,0.670,0.637,�k�k��,5.4,�L
2020/05/22,23:10,0.661,0.937,0.624,1.147,0.810,0.386,0.668,0.637,�k�k��,5.4,�L
2020/05/22,23:20,0.659,0.935,0.626,1.145,0.811,0.387,0.669,0.636,�k�k��,5.2,�L
2020/05/22,23:30,0.661,0.936,0.627,1.143,0.809,0.387,0.668,0.636,�k�k��,4.7,�L
2020/05/22,23:40,0.661,0.939,0.625,1.145,0.810,0.388,0.671,0.635,�k�k��,4.7,�L
2020/05/22,23:50,0.661,0.941,0.626,1.144,0.810,0.386,0.670,0.637,�k�k��,5.1,�L
